Tracking 32941 objects as of 15-Jan-2026
HD Live streaming from Space Station
objects crossing your sky now

COSMOS 1375 DEB

Track COSMOS 1375 DEB now!
10-day predictions


NORAD ID: 16385
Int'l Code: 1982-055Z
Perigee: 924.8 km
Apogee: 966.0 km
Inclination: 65.8 °
Period: 103.8 minutes
Semi major axis: 7316 km
RCS: 0.0186 m2 (small)
Launch date: June 6, 1982
Source: Commonwealth of Independent States (former USSR) (CIS)
Launch site: PLESETSK MISSILE AND SPACE COMPLEX (PKMTR)

Note: This is SATELLITE DEBRIS
Your satellite tracking list
Your tracking list is empty




NASA's NSSDC Master Catalog

Two Line Element Set (TLE):
1 16385U 82055Z   26012.96659310  .00000604  00000-0  58197-3 0  9996
2 16385  65.8268 195.9028 0028138 339.6523 175.4915 13.87249048 24797
Source of the keplerian elements: AFSPC